• In Austria
  • List of Countries
  • For 7 days
  • Water Temperature
  • Satellite Maps
  • Weather Map
  • News
  • Weather Widgets
  • user-avatar
    Login

    Hourly Weather Trzebinia

    Today, 19 July, Thursday

    Time Temperature Precipitation Wind Pressure Humidity
    00:00 +18°C° 0.1 mm 4 mps 727 mmHg 95%
    01:00 +18°C° 0 mm 4 mps 726 mmHg 96%
    02:00 +18°C° 0.3 mm 4 mps 726 mmHg 96%
    03:00 +18°C° 0.3 mm 4 mps 727 mmHg 96%
    04:00 +18°C° 0.3 mm 4 mps 727 mmHg 96%
    05:00 +18°C° 0.4 mm 4 mps 727 mmHg 95%
    06:00 +18°C° 0.4 mm 4 mps 727 mmHg 95%
    07:00 +18°C° 0 mm 3 mps 727 mmHg 94%
    08:00 +18°C° 0.6 mm 4 mps 727 mmHg 94%
    09:00 +19°C° 0.6 mm 4 mps 728 mmHg 93%
    10:00 +19°C° 0.6 mm 4 mps 728 mmHg 92%
    11:00 +19°C° 0.2 mm 4 mps 728 mmHg 91%
    12:00 +20°C° 0.2 mm 4 mps 728 mmHg 89%
    13:00 +20°C° 0.2 mm 4 mps 728 mmHg 87%
    14:00 +21°C° 0.2 mm 4 mps 728 mmHg 86%
    15:00 +21°C° 0.2 mm 4 mps 728 mmHg 85%
    16:00 +21°C° 0.2 mm 4 mps 728 mmHg 84%
    17:00 +20°C° 0.1 mm 4 mps 728 mmHg 86%
    18:00 +20°C° 0.1 mm 4 mps 728 mmHg 89%
    19:00 +19°C° 0.1 mm 3 mps 728 mmHg 91%
    20:00 +19°C° 0.1 mm 3 mps 728 mmHg 93%
    21:00 +19°C° 0.1 mm 3 mps 728 mmHg 94%
    22:00 +18°C° 0.1 mm 3 mps 728 mmHg 95%
    23:00 +18°C° 0.1 mm 3 mps 728 mmHg 95%

    Tomorrow, 20 July, Friday

    Time Temperature Precipitation Wind Pressure Humidity
    00:00 +18°C° 0.1 mm 3 mps 728 mmHg 95%
    01:00 +18°C° 0.1 mm 3 mps 728 mmHg 95%
    02:00 +18°C° 0.2 mm 3 mps 728 mmHg 95%
    03:00 +18°C° 0.2 mm 3 mps 728 mmHg 96%
    04:00 +17°C° 0.2 mm 3 mps 728 mmHg 96%
    05:00 +17°C° 0.1 mm 3 mps 728 mmHg 95%
    06:00 +17°C° 0.1 mm 4 mps 728 mmHg 94%
    07:00 +17°C° 0.1 mm 4 mps 729 mmHg 93%
    08:00 +18°C° 0 mm 4 mps 729 mmHg 88%
    09:00 +19°C° 0 mm 4 mps 729 mmHg 83%
    10:00 +20°C° 0 mm 4 mps 729 mmHg 78%
    11:00 +22°C° 0.1 mm 4 mps 729 mmHg 72%
    12:00 +23°C° 0.1 mm 4 mps 729 mmHg 67%
    13:00 +25°C° 0.1 mm 4 mps 729 mmHg 61%
    14:00 +25°C° 0.1 mm 4 mps 729 mmHg 60%
    15:00 +25°C° 0.1 mm 4 mps 729 mmHg 60%
    16:00 +26°C° 0.1 mm 4 mps 729 mmHg 60%
    17:00 +23°C° 0.1 mm 4 mps 728 mmHg 65%
    18:00 +22°C° 0.1 mm 3 mps 728 mmHg 70%
    19:00 +21°C° 0.1 mm 2 mps 728 mmHg 74%
    20:00 +20°C° 0 mm 2 mps 729 mmHg 77%
    21:00 +18°C° 0 mm 2 mps 729 mmHg 79%
    22:00 +17°C° 0 mm 2 mps 729 mmHg 81%
    23:00 +18°C° 0 mm 1 mps 729 mmHg 82%

    Day after tomorrow, 21 July, Saturday

    Time Temperature Precipitation Wind Pressure Humidity
    00:00 +16°C° 0 mm 1 mps 729 mmHg 83%
    01:00 +15°C° 0 mm 1 mps 728 mmHg 85%
    02:00 +15°C° 0 mm 1 mps 728 mmHg 86%
    03:00 +15°C° 0 mm 1 mps 728 mmHg 87%
    04:00 +14°C° 0 mm 1 mps 728 mmHg 88%
    05:00 +16°C° 0 mm 1 mps 728 mmHg 83%
    06:00 +18°C° 0 mm 1 mps 729 mmHg 79%
    07:00 +20°C° 0 mm 1 mps 729 mmHg 74%
    08:00 +22°C° 0 mm 1 mps 729 mmHg 67%
    09:00 +23°C° 0 mm 1 mps 729 mmHg 61%
    10:00 +25°C° 0 mm 1 mps 729 mmHg 54%
    11:00 +25°C° 0 mm 1 mps 729 mmHg 51%
    12:00 +26°C° 0 mm 1 mps 729 mmHg 48%
    13:00 +27°C° 0 mm 2 mps 728 mmHg 45%
    14:00 +27°C° 0 mm 2 mps 728 mmHg 45%
    15:00 +27°C° 0 mm 2 mps 728 mmHg 45%
    16:00 +27°C° 0 mm 2 mps 728 mmHg 46%
    17:00 +25°C° 0 mm 2 mps 728 mmHg 52%
    18:00 +24°C° 0 mm 2 mps 728 mmHg 59%
    19:00 +21°C° 0 mm 2 mps 728 mmHg 65%
    20:00 +21°C° 0 mm 1 mps 728 mmHg 68%
    21:00 +20°C° 0 mm 1 mps 728 mmHg 72%
    22:00 +19°C° 0 mm 1 mps 728 mmHg 75%
    23:00 +18°C° 0 mm 1 mps 728 mmHg 77%

    22 July, Sunday

    Time Temperature Precipitation Wind Pressure Humidity
    00:00 +18°C° 0 mm 1 mps 727 mmHg 78%
    01:00 +16°C° 0 mm 1 mps 727 mmHg 80%
    02:00 +16°C° 0 mm 1 mps 727 mmHg 81%
    03:00 +15°C° 0 mm 0 mps 727 mmHg 82%
    04:00 +14°C° 0 mm 0 mps 727 mmHg 83%
    05:00 +16°C° 0 mm 0 mps 727 mmHg 78%
    06:00 +20°C° 0 mm 1 mps 727 mmHg 73%
    07:00 +21°C° 0 mm 1 mps 727 mmHg 67%
    08:00 +23°C° 0 mm 1 mps 727 mmHg 62%
    09:00 +24°C° 0 mm 2 mps 727 mmHg 57%
    10:00 +25°C° 0 mm 2 mps 727 mmHg 52%
    11:00 +26°C° 0 mm 2 mps 727 mmHg 50%
    12:00 +26°C° 0 mm 2 mps 727 mmHg 48%
    13:00 +27°C° 0 mm 3 mps 727 mmHg 45%
    14:00 +27°C° 0 mm 3 mps 726 mmHg 46%
    15:00 +27°C° 0 mm 3 mps 726 mmHg 46%
    16:00 +27°C° 0 mm 3 mps 726 mmHg 46%
    17:00 +25°C° 0 mm 2 mps 726 mmHg 52%
    18:00 +24°C° 0 mm 2 mps 726 mmHg 58%
    19:00 +21°C° 0 mm 2 mps 726 mmHg 64%
    20:00 +20°C° 0 mm 2 mps 726 mmHg 67%
    21:00 +19°C° 0 mm 2 mps 726 mmHg 70%
    22:00 +19°C° 0 mm 1 mps 726 mmHg 73%
    23:00 +19°C° 0 mm 1 mps 726 mmHg 76%

    23 July, Monday

    Time Temperature Precipitation Wind Pressure Humidity
    00:00 +18°C° 0 mm 1 mps 726 mmHg 80%
    01:00 +18°C° 0 mm 1 mps 726 mmHg 83%
    02:00 +18°C° 0 mm 1 mps 726 mmHg 85%
    03:00 +18°C° 0 mm 1 mps 726 mmHg 87%
    04:00 +16°C° 0 mm 1 mps 726 mmHg 88%
    05:00 +19°C° 0 mm 1 mps 727 mmHg 85%
    06:00 +19°C° 0 mm 2 mps 727 mmHg 81%
    07:00 +20°C° 0 mm 2 mps 728 mmHg 78%
    08:00 +21°C° 0.2 mm 2 mps 728 mmHg 72%
    09:00 +22°C° 0.2 mm 3 mps 728 mmHg 67%
    10:00 +25°C° 0.2 mm 3 mps 728 mmHg 62%
    11:00 +25°C° 0.3 mm 4 mps 728 mmHg 59%
    12:00 +26°C° 0.3 mm 4 mps 728 mmHg 57%
    13:00 +26°C° 0.3 mm 5 mps 728 mmHg 55%
    14:00 +26°C° 0.3 mm 4 mps 728 mmHg 56%
    15:00 +26°C° 0.3 mm 4 mps 728 mmHg 57%
    16:00 +26°C° 0.3 mm 4 mps 728 mmHg 58%
    17:00 +25°C° 0.2 mm 3 mps 728 mmHg 63%
    18:00 +24°C° 0.2 mm 3 mps 728 mmHg 68%
    19:00 +21°C° 0.2 mm 2 mps 728 mmHg 73%
    20:00 +20°C° 0 mm 2 mps 729 mmHg 77%
    21:00 +19°C° 0 mm 2 mps 729 mmHg 80%
    22:00 +18°C° 0 mm 2 mps 729 mmHg 84%
    23:00 +18°C° 0 mm 2 mps 729 mmHg 85%

    24 July, Tuesday

    Time Temperature Precipitation Wind Pressure Humidity
    00:00 +18°C° 0 mm 1 mps 729 mmHg 87%
    01:00 +18°C° 0 mm 1 mps 729 mmHg 89%
    02:00 +18°C° 0 mm 1 mps 729 mmHg 90%
    03:00 +16°C° 0 mm 1 mps 729 mmHg 91%
    04:00 +16°C° 0 mm 1 mps 729 mmHg 92%
    05:00 +18°C° 0 mm 1 mps 730 mmHg 87%
    06:00 +20°C° 0 mm 1 mps 730 mmHg 83%
    07:00 +20°C° 0 mm 2 mps 730 mmHg 79%
    08:00 +23°C° 0 mm 2 mps 730 mmHg 72%
    09:00 +24°C° 0 mm 2 mps 730 mmHg 65%
    10:00 +25°C° 0 mm 3 mps 730 mmHg 58%
    11:00 +26°C° 0 mm 3 mps 730 mmHg 55%
    12:00 +26°C° 0 mm 3 mps 730 mmHg 53%
    13:00 +27°C° 0 mm 3 mps 730 mmHg 50%
    14:00 +27°C° 0 mm 3 mps 730 mmHg 50%
    15:00 +27°C° 0 mm 3 mps 730 mmHg 50%
    16:00 +27°C° 0 mm 3 mps 730 mmHg 49%
    17:00 +26°C° 0 mm 2 mps 730 mmHg 55%
    18:00 +25°C° 0 mm 2 mps 730 mmHg 61%
    19:00 +23°C° 0 mm 2 mps 730 mmHg 67%
    20:00 +22°C° 0 mm 1 mps 730 mmHg 71%
    21:00 +21°C° 0 mm 1 mps 730 mmHg 76%
    22:00 +20°C° 0 mm 1 mps 730 mmHg 80%
    23:00 +19°C° 0 mm 1 mps 730 mmHg 82%
    Show more